Weather in Panayevsk

Russia / Yamalo-Nenets Autonomous Okrug     66°44′41″N   70°05′10″E
В апреле 2022 года жителям России запретили посещать сайт meteo.paraplan.net по решению Генеральной прокуратуры. Аудитория сайта уменьшилась в 10 раз. Владельцы сайта не видят смысла в поддержке погодного сервера в таких условиях. Сайт будет закрыт в октябре.
temp.,
°C
wind,
m/s
gust,
m/s
humid.,
%
clouds,
%
prec.,
mm/h
press.,
hPa
HPBL,
m
6 october, thu
thu623:00+2s578622 0.0 1027230
02:00+2s698734 0.0 1026255
05:00+2s71085100 0.0 1025299
08:00+2s7128370 0.0 1023343
11:00+4s81378100 0.1 1022480
14:00+3s81294100 1.3 1020427
17:00+4s81392100 1.9 1018417
20:00+5s71291100 0.1 1017289
7 october, fri
fri723:00+4s71092100 0.3 1014279
02:00+4s6893100 0.0 1012243
05:00+4s5894100 0.0 1010225
08:00+4s5793100 0.0 1008232
11:00+5s4591100 0.0 1006278
14:00+5se3495100 0.1 1004225
17:00+4se2396100 0.1 1003160
20:00+4sse1296100 0.1 100179
8 october, sat
sat823:00+4wnw1196100 0.2 100044
02:00+4nw1195100 0.1 99952
05:00+4nw2395100 0.3 999248
08:00+4nnw129799 0.1 999144
11:00+4s0192100 0.1 1000158
14:00+5s119098 0.0 1000153
17:00+5sse229390 0.1 100149
20:00+5s3492100 0.0 100180
9 october, sun
sun923:00+5ssw4595100 0.4 1001174
02:00+5w3593100 0.2 1002131
05:00+5sw3492100 0.3 1002116
08:00+5sw588696 0.1 1002271
11:00+6sw5783100 0.3 1002486
14:00+5sw5787100 0.1 1002452
17:00+6sw577665 0.1 1002201
20:00+4sw51086100 0.0 1002207
10 october, mon
mon1023:00+4ssw5890100 0.0 1001194
02:00+5ssw5997100 1.1 1000247
05:00+5sw5897100 1.8 999228
08:00+5wsw5997100 1.4 998303
11:00+6wsw61091100 2.3 998340
14:00+7w598283 0.0 998395
17:00+6wsw458417 0.0 99970
20:00+4wsw47885 0.0 999134